CW0214 Weather Reports


time (UTC)temp
C
wind
direction
speed
KPH
gust
KPH
rain 1hr
cm
rain 24hr
cm
rain mn
cm
humidity
%
barometer
mb
20181023122902 21 83 9.7 22.5 0.00 0.00 0.00 53 1022.2
20181023122403 21 71 8.0 25.7 0.00 0.00 0.00 53 1022.2
20181023121904 21 75 11.3 19.3 0.00 0.00 0.00 53 1022.3
20181023121403 21 39 9.7 22.5 0.00 0.00 0.00 54 1022.3
20181023120904 21 122 12.9 22.5 0.00 0.00 0.00 54 1022.3
20181023120403 21 100 16.1 25.7 0.00 0.00 0.00 53 1022.4
20181023115903 21 89 14.5 20.9 0.00 0.00 0.00 53 1022.5
20181023115402 21 91 11.3 19.3 0.00 0.00 0.00 54 1022.7
20181023114903 21 103 11.3 20.9 0.00 0.00 0.00 53 1022.7
20181023114403 21 72 9.7 19.3 0.00 0.00 0.00 54 1022.7
20181023113903 21 104 9.7 19.3 0.00 0.00 0.00 53 1022.8
20181023113403 21 95 11.3 25.7 0.00 0.00 0.00 53 1022.7
20181023112903 21 82 16.1 22.5 0.00 0.00 0.00 53 1022.7
20181023112402 21 124 19.3 32.2 0.00 0.00 0.00 53 1022.6
20181023111903 21 84 14.5 24.1 0.00 0.00 0.00 53 1022.7
20181023111404 21 89 11.3 24.1 0.00 0.00 0.00 53 1022.6
20181023110903 21 104 14.5 29.0 0.00 0.00 0.00 53 1022.4
20181023110402 21 85 14.5 24.1 0.00 0.00 0.00 53 1022.5
20181023105903 21 99 11.3 20.9 0.00 0.00 0.00 54 1022.4
20181023105403 21 104 14.5 22.5 0.00 0.00 0.00 54 1022.3
20181023104905 21 100 12.9 29.0 0.00 0.00 0.00 54 1022.3
20181023104403 20 122 14.5 24.1 0.00 0.00 0.00 54 1022.2
20181023103903 20 104 12.9 24.1 0.00 0.00 0.00 54 1022.3
20181023103403 20 78 11.3 24.1 0.00 0.00 0.00 55 1022.2
20181023102903 20 75 14.5 24.1 0.00 0.00 0.00 56 1022.3
20181023102404 19 39 8.0 19.3 0.00 0.00 0.00 57 1022.3
20181023101903 19 89 9.7 22.5 0.00 0.00 0.00 56 1022.3
20181023101406 19 68 11.3 19.3 0.00 0.00 0.00 57 1022.2
20181023100904 19 78 12.9 20.9 0.00 0.00 0.00 57 1022.3
20181023100403 18 82 11.3 22.5 0.00 0.00 0.00 58 1022.3
20181023095903 18 87 11.3 16.1 0.00 0.00 0.00 59 1022.4
20181023095403 18 81 8.0 19.3 0.00 0.00 0.00 59 1022.4
20181023094903 18 83 9.7 19.3 0.00 0.00 0.00 59 1022.3
20181023094403 18 98 8.0 19.3 0.00 0.00 0.00 59 1022.3
20181023093904 18 121 6.4 12.9 0.00 0.00 0.00 59 1022.4
20181023093403 18 121 9.7 16.1 0.00 0.00 0.00 58 1022.3
20181023092904 18 114 8.0 16.1 0.00 0.00 0.00 58 1022.3
20181023092403 18 94 4.8 16.1 0.00 0.00 0.00 58 1022.3
20181023091905 18 120 6.4 14.5 0.00 0.00 0.00 58 1022.2
20181023091405 18 78 9.7 19.3 0.00 0.00 0.00 58 1022.3
20181023090904 18 79 9.7 14.5 0.00 0.00 0.00 58 1022.3
20181023090403 18 97 3.2 20.9 0.00 0.00 0.00 58 1022.2
20181023085904 18 94 9.7 22.5 0.00 0.00 0.00 57 1022.0
20181023085403 18 90 8.0 19.3 0.00 0.00 0.00 57 1022.1
20181023084903 18 91 9.7 12.9 0.00 0.00 0.00 57 1021.9
20181023084403 18 76 3.2 9.7 0.00 0.00 0.00 56 1021.8
20181023083903 18 115 11.3 19.3 0.00 0.00 0.00 58 1021.8
20181023083404 18 76 9.7 14.5 0.00 0.00 0.00 58 1022.0
20181023082903 18 140 3.2 12.9 0.00 0.00 0.00 59 1021.8
20181023082405 17 77 4.8 12.9 0.00 0.00 0.00 59 1021.8
20181023081903 17 66 1.6 8.0 0.00 0.00 0.00 60 1021.8
20181023081404 17 98 4.8 16.1 0.00 0.00 0.00 60 1021.7
20181023080903 17 84 4.8 12.9 0.00 0.00 0.00 61 1021.7
20181023080403 17 83 0.0 4.8 0.00 0.00 0.00 61 1021.6
20181023075903 17 27 1.6 14.5 0.00 0.00 0.00 61 1021.4
20181023075404 17 54 3.2 14.5 0.00 0.00 0.00 61 1021.4
20181023074903 17 78 1.6 11.3 0.00 0.00 0.00 61 1021.3
20181023074403 17 37 1.6 9.7 0.00 0.00 0.00 61 1021.3
20181023073903 17 26 4.8 11.3 0.00 0.00 0.00 61 1021.2
20181023073403 17 56 3.2 4.8 0.00 0.00 0.00 61 1021.2
20181023072903 17 115 3.2 11.3 0.00 0.00 0.00 62 1021.1
20181023072403 17 76 1.6 11.3 0.00 0.00 0.00 61 1021.0
20181023071903 17 65 3.2 16.1 0.00 0.00 0.00 61 1020.9
20181023071405 17 105 8.0 16.1 0.00 0.00 0.00 61 1020.8
20181023070904 17 107 0.0 9.7 0.00 0.00 0.00 61 1020.7
20181023070403 17 39 8.0 12.9 0.00 0.00 0.00 61 1020.7
20181023065903 17 103 3.2 9.7 0.00 0.00 0.00 61 1020.6
20181023065403 17 103 4.8 11.3 0.00 0.00 0.00 61 1020.6
20181023064903 17 73 3.2 11.3 0.00 0.00 0.00 61 1020.5
20181023064404 17 104 4.8 14.5 0.00 0.00 0.00 60 1020.4
20181023063904 17 111 4.8 14.5 0.00 0.00 0.00 60 1020.4
20181023063403 17 86 1.6 12.9 0.00 0.00 0.00 60 1020.4
20181023062903 17 105 8.0 19.3 0.00 0.00 0.00 60 1020.3
20181023062403 17 119 9.7 16.1 0.00 0.00 0.00 60 1020.3
20181023061904 17 78 6.4 12.9 0.00 0.00 0.00 60 1020.2
20181023061404 17 101 3.2 11.3 0.00 0.00 0.00 60 1020.2
20181023060903 17 88 3.2 8.0 0.00 0.00 0.00 60 1020.2
20181023060403 17 50 0.0 8.0 0.00 0.00 0.00 60 1020.2
20181023055903 17 61 4.8 11.3 0.00 0.00 0.00 59 1020.2
20181023055403 17 87 1.6 11.3 0.00 0.00 0.00 59 1020.1
20181023054903 17 72 8.0 12.9 0.00 0.00 0.00 59 1020.1
20181023054403 17 84 8.0 12.9 0.00 0.00 0.00 59 1020.1
20181023053903 17 82 8.0 14.5 0.00 0.00 0.00 59 1020.1
20181023053403 17 108 4.8 16.1 0.00 0.00 0.00 61 1020.1
20181023052903 17 113 4.8 9.7 0.00 0.00 0.00 61 1020.0
20181023052403 17 88 8.0 11.3 0.00 0.00 0.00 61 1020.0
20181023051903 17 95 8.0 19.3 0.00 0.00 0.00 61 1020.0
20181023051404 17 72 4.8 11.3 0.00 0.00 0.00 61 1019.9
20181023050903 16 63 6.4 11.3 0.00 0.00 0.00 62 1019.8
20181023050404 16 49 1.6 8.0 0.00 0.00 0.00 62 1019.8
20181023045903 16 46 3.2 9.7 0.00 0.00 0.00 63 1019.7
20181023045403 16 44 3.2 9.7 0.00 0.00 0.00 64 1019.7
20181023044904 16 74 3.2 4.8 0.00 0.00 0.00 64 1019.7
20181023044403 16 77 0.0 4.8 0.00 0.00 0.00 63 1019.6
20181023043903 16 74 3.2 4.8 0.00 0.00 0.00 63 1019.6
20181023043403 17 76 0.0 4.8 0.00 0.00 0.00 62 1019.5
20181023042903 17 72 1.6 4.8 0.00 0.00 0.00 62 1019.5
20181023042403 17 74 1.6 9.7 0.00 0.00 0.00 62 1019.5
20181023041903 17 75 6.4 11.3 0.00 0.00 0.00 60 1019.3
20181023041405 17 76 8.0 14.5 0.00 0.00 0.00 59 1019.2
20181023040903 17 86 8.0 12.9 0.00 0.00 0.00 59 1019.2
20181023040402 17 60 3.2 11.3 0.00 0.00 0.00 59 1019.1
20181023035903 17 58 3.2 11.3 0.00 0.00 0.00 60 1019.0
20181023035403 17 37 3.2 9.7 0.00 0.00 0.00 61 1019.1
20181023034904 17 45 1.6 9.7 0.00 0.00 0.00 62 1019.0
20181023034403 17 65 4.8 12.9 0.00 0.00 0.00 62 1019.1
20181023033903 17 73 6.4 14.5 0.00 0.00 0.00 62 1019.1
20181023033403 17 68 4.8 14.5 0.00 0.00 0.00 62 1019.1
20181023032903 17 85 8.0 14.5 0.00 0.00 0.00 62 1019.1
20181023032403 17 69 8.0 16.1 0.00 0.00 0.00 62 1019.2
20181023031904 17 71 8.0 12.9 0.00 0.00 0.00 61 1019.2
20181023031404 17 65 8.0 12.9 0.00 0.00 0.00 62 1019.3
20181023030903 17 73 4.8 11.3 0.00 0.00 0.00 62 1019.2
20181023030403 17 94 8.0 11.3 0.00 0.00 0.00 62 1019.2
20181023025903 17 59 6.4 11.3 0.00 0.00 0.00 62 1019.1
20181023025403 17 87 3.2 12.9 0.00 0.00 0.00 61 1019.0
20181023024903 17 72 4.8 11.3 0.00 0.00 0.00 61 1019.1
20181023024403 17 59 6.4 11.3 0.00 0.00 0.00 61 1019.0
20181023023903 17 47 8.0 11.3 0.00 0.00 0.00 61 1019.1
20181023023403 17 62 11.3 12.9 0.00 0.00 0.00 61 1019.1
20181023022903 17 47 4.8 9.7 0.00 0.00 0.00 61 1019.0
20181023022403 17 47 3.2 8.0 0.00 0.00 0.00 62 1019.1
20181023021902 17 53 0.0 4.8 0.00 0.00 0.00 63 1019.2
20181023021405 17 62 1.6 4.8 0.00 0.00 0.00 62 1019.2
20181023020904 18 64 3.2 11.3 0.00 0.00 0.00 62 1019.1
20181023020403 18 57 8.0 12.9 0.00 0.00 0.00 62 1019.1
20181023015903 18 66 8.0 11.3 0.00 0.00 0.00 62 1019.1
20181023015404 18 64 8.0 12.9 0.00 0.00 0.00 63 1019.1
20181023014903 18 43 4.8 11.3 0.00 0.00 0.00 62 1019.2
20181023014403 18 64 3.2 4.8 0.00 0.00 0.00 63 1019.3
20181023013904 18 68 4.8 9.7 0.00 0.00 0.00 63 1019.2
20181023013403 18 60 3.2 9.7 0.00 0.00 0.00 62 1019.2
20181023012903 18 71 4.8 11.3 0.00 0.00 0.00 62 1019.1
20181023012403 18 78 4.8 11.3 0.00 0.00 0.00 62 1019.0
20181023011904 18 57 4.8 9.7 0.00 0.00 0.00 63 1019.0
20181023011405 18 55 6.4 9.7 0.00 0.00 0.00 64 1019.0
20181023010904 18 66 4.8 9.7 0.00 0.00 0.00 64 1019.0
20181023010403 18 68 6.4 12.9 0.00 0.00 0.00 63 1019.0
20181023005903 18 74 9.7 14.5 0.00 0.00 0.00 64 1019.0
20181023005403 18 67 4.8 11.3 0.00 0.00 0.00 65 1019.0
20181023004903 18 67 6.4 11.3 0.00 0.00 0.00 64 1019.0
20181023004403 18 66 4.8 9.7 0.00 0.00 0.00 63 1019.0
20181023003903 18 73 4.8 11.3 0.00 0.00 0.00 63 1019.1
20181023003403 18 66 1.6 8.0 0.00 0.00 0.00 62 1019.1
20181023002903 18 62 3.2 8.0 0.00 0.00 0.00 64 1019.1
20181023002404 18 69 3.2 9.7 0.00 0.00 0.00 63 1019.0
20181023001903 19 71 6.4 9.7 0.00 0.00 0.00 61 1019.1
20181023001403 19 90 3.2 9.7 0.00 0.00 0.00 58 1019.1
20181023000904 19 76 4.8 9.7 0.00 0.00 0.00 59 1019.2
20181023000403 19 55 1.6 11.3 0.00 0.00 0.00 59 1019.2
20181022235903 20 38 1.6 4.8 0.00 0.00 0.00 58 1019.2
20181022235404 20 14 1.6 8.0 0.00 0.00 0.00 56 1019.2
20181022234903 19 30 1.6 4.8 0.00 0.00 0.00 57 1019.0
20181022234404 19 28 3.2 8.0 0.00 0.00 0.00 60 1019.1
20181022233904 19 40 3.2 8.0 0.00 0.00 0.00 64 1019.1
20181022233403 19 52 3.2 11.3 0.00 0.00 0.00 63 1019.2
20181022232903 19 36 1.6 4.8 0.00 0.00 0.00 62 1019.3
20181022232403 19 32 3.2 8.0 0.00 0.00 0.00 62 1019.3
20181022231904 19 37 1.6 9.7 0.00 0.00 0.00 60 1019.3
20181022231404 19 36 1.6 9.7 0.00 0.00 0.00 63 1019.4
20181022230903 19 40 3.2 9.7 0.00 0.00 0.00 65 1019.4
20181022230404 19 29 3.2 8.0 0.00 0.00 0.00 67 1019.4
20181022225903 19 41 3.2 9.7 0.00 0.00 0.00 68 1019.5
20181022225403 19 38 3.2 9.7 0.00 0.00 0.00 71 1019.5
20181022224904 19 76 0.0 9.7 0.00 0.00 0.00 75 1019.6
20181022224404 18 61 0.0 8.0 0.00 0.00 0.00 80 1019.7
20181022223903 18 61 1.6 4.8 0.00 0.00 0.00 83 1019.7
20181022223404 18 321 0.0 3.2 0.00 0.00 0.00 84 1019.7
20181022222904 18 321 0.0 0.0 0.00 0.00 0.00 83 1019.6
20181022222404 18 321 1.6 3.2 0.00 0.00 0.00 85 1019.6
20181022221904 18 321 0.0 0.0 0.00 0.00 0.00 87 1019.5
20181022221406 18 321 0.0 0.0 0.00 0.00 0.00 87 1019.6
20181022220903 17 321 0.0 0.0 0.00 0.00 0.00 87 1019.6
20181022220403 17 321 0.0 0.0 0.00 0.00 0.00 86 1019.6
20181022215903 18 321 0.0 0.0 0.00 0.00 0.00 86 1019.6
20181022215403 18 321 0.0 0.0 0.00 0.00 0.00 84 1019.5
20181022214903 18 321 0.0 0.0 0.00 0.00 0.00 82 1019.4
20181022214404 19 321 0.0 0.0 0.00 0.00 0.00 82 1019.3
20181022213904 19 321 0.0 0.0 0.00 0.00 0.00 82 1019.2
20181022213403 19 321 0.0 1.6 0.00 0.00 0.00 82 1019.4
20181022212903 19 321 0.0 4.8 0.00 0.00 0.00 82 1019.3
20181022212403 20 321 1.6 8.0 0.00 0.00 0.00 81 1019.2
20181022211903 20 321 3.2 8.0 0.00 0.00 0.00 82 1019.1
20181022211406 19 320 0.0 4.8 0.00 0.00 0.00 82 1019.1
20181022210904 19 320 0.0 0.0 0.00 0.00 0.00 82 1019.1
20181022210404 19 320 0.0 0.0 0.00 0.00 0.00 81 1019.1
20181022205904 20 320 0.0 1.6 0.00 0.00 0.00 80 1019.1
20181022205403 20 320 1.6 4.8 0.00 0.00 0.00 80 1019.1
20181022204903 20 321 1.6 8.0 0.00 0.00 0.00 80 1019.1
20181022203903 20 327 0.0 0.0 0.00 0.00 0.00 79 1019.1
20181022203404 20 327 0.0 0.0 0.00 0.00 0.00 79 1019.1
20181022202904 20 327 0.0 1.6 0.00 0.00 0.00 79 1019.1
20181022202404 20 331 0.0 4.8 0.00 0.00 0.00 78 1019.1
20181022201405 20 330 1.6 9.7 0.00 0.00 0.00 77 1019.1
20181022200903 20 300 3.2 8.0 0.00 0.00 0.00 77 1019.1
20181022195404 20 240 1.6 4.8 0.00 0.00 0.00 77 1019.0
20181022194904 20 240 1.6 3.2 0.00 0.00 0.00 77 1019.0
20181022194403 20 240 0.0 0.0 0.00 0.00 0.00 77 1018.9
20181022193904 20 240 0.0 0.0 0.00 0.00 0.00 77 1019.0
20181022192903 21 240 1.6 4.8 0.00 0.00 0.00 76 1018.7
20181022192407 21 240 0.0 8.0 0.00 0.00 0.00 76 1018.7
20181022191905 21 240 3.2 9.7 0.00 0.00 0.00 75 1018.7
20181022191404 21 269 0.0 4.8 0.00 0.00 0.00 74 1018.6
20181022190903 21 269 1.6 4.8 0.00 0.00 0.00 74 1018.6
20181022190403 21 269 3.2 8.0 0.00 0.00 0.00 74 1018.5
20181022185903 21 270 3.2 8.0 0.00 0.00 0.00 74 1018.5
20181022185404 21 281 4.8 11.3 0.00 0.00 0.00 73 1018.4
20181022184904 21 216 3.2 9.7 0.00 0.00 0.00 72 1018.4
20181022184403 21 212 4.8 9.7 0.00 0.00 0.00 72 1018.4
20181022183903 21 211 3.2 8.0 0.00 0.00 0.00 72 1018.2
20181022183404 21 211 0.0 1.6 0.00 0.00 0.00 71 1018.2
20181022182904 22 211 1.6 4.8 0.00 0.00 0.00 71 1018.1
20181022182403 22 211 0.0 4.8 0.00 0.00 0.00 71 1018.1
20181022181904 22 211 0.0 0.0 0.00 0.00 0.00 70 1018.1
20181022181405 22 211 0.0 1.6 0.00 0.00 0.00 70 1018.1
20181022180903 22 211 0.0 0.0 0.00 0.00 0.00 70 1018.1
20181022180403 22 211 0.0 0.0 0.00 0.00 0.00 70 1018.1
20181022175903 22 211 0.0 0.0 0.00 0.00 0.00 69 1018.1
20181022175403 22 211 0.0 0.0 0.00 0.00 0.00 68 1018.1
20181022174903 22 211 0.0 1.6 0.00 0.00 0.00 68 1018.1
20181022174404 22 211 1.6 8.0 0.00 0.00 0.00 68 1018.1
20181022173904 22 211 3.2 8.0 0.00 0.00 0.00 68 1018.1
20181022173404 22 207 0.0 3.2 0.00 0.00 0.00 69 1018.1
20181022172903 22 207 1.6 4.8 0.00 0.03 0.00 68 1018.2
20181022172403 23 202 1.6 8.0 0.00 0.03 0.00 67 1018.1
20181022171903 23 201 3.2 8.0 0.00 0.03 0.00 66 1018.1
20181022171405 23 245 0.0 4.8 0.00 0.03 0.00 65 1018.0
20181022170903 23 245 0.0 8.0 0.00 0.03 0.00 65 1018.1
20181022170403 23 346 0.0 3.2 0.00 0.03 0.00 64 1018.1
20181022165903 23 347 0.0 1.6 0.00 0.03 0.00 64 1018.0
20181022165403 23 298 0.0 9.7 0.00 0.03 0.00 64 1018.0
20181022164904 23 219 1.6 4.8 0.00 0.03 0.00 64 1018.0
20181022164403 23 219 0.0 9.7 0.00 0.03 0.00 64 1018.1
20181022163904 23 253 3.2 9.7 0.00 0.03 0.00 63 1018.0
20181022163403 23 189 4.8 8.0 0.00 0.03 0.00 63 1018.0
20181022162903 23 130 1.6 11.3 0.00 0.03 0.00 63 1018.0
20181022162403 23 158 3.2 9.7 0.00 0.03 0.00 62 1018.0
20181022161904 23 79 0.0 8.0 0.00 0.03 0.00 61 1018.0
20181022161405 23 203 1.6 4.8 0.00 0.03 0.00 59 1018.0
20181022160903 23 215 3.2 11.3 0.00 0.03 0.00 58 1018.0
20181022160403 24 118 1.6 8.0 0.00 0.03 0.00 57 1018.0
20181022155903 24 163 1.6 9.7 0.00 0.03 0.00 56 1018.0
20181022155403 24 72 1.6 9.7 0.00 0.03 0.00 55 1018.0
20181022154903 24 347 4.8 11.3 0.00 0.03 0.00 54 1018.0
20181022154403 25 19 4.8 11.3 0.00 0.03 0.00 52 1018.0
20181022153904 25 275 3.2 9.7 0.00 0.03 0.00 53 1018.0
20181022153403 25 38 0.0 8.0 0.00 0.03 0.00 54 1017.9
20181022152904 26 11 1.6 9.7 0.00 0.03 0.00 53 1017.9
20181022152404 26 173 1.6 14.5 0.00 0.03 0.00 52 1017.9
20181022151903 26 324 1.6 9.7 0.00 0.03 0.00 53 1017.9
20181022151404 26 339 3.2 9.7 0.00 0.03 0.00 51 1017.8
20181022150904 26 245 6.4 11.3 0.00 0.03 0.00 51 1017.7
20181022150404 26 286 0.0 8.0 0.00 0.03 0.00 50 1017.7
20181022145904 27 288 6.4 9.7 0.00 0.03 0.00 50 1017.7
20181022145404 26 170 0.0 1.6 0.00 0.03 0.00 51 1017.6
20181022144904 26 170 0.0 4.8 0.00 0.03 0.00 51 1017.8
20181022144404 25 166 0.0 8.0 0.00 0.03 0.00 53 1017.8
20181022143904 25 166 3.2 9.7 0.00 0.03 0.00 53 1017.9
20181022143403 26 150 0.0 9.7 0.00 0.03 0.00 52 1017.9
20181022142903 26 143 1.6 8.0 0.00 0.03 0.00 52 1017.9
20181022142404 26 154 1.6 8.0 0.00 0.03 0.00 51 1017.9
20181022141904 26 4 0.0 1.6 0.00 0.03 0.00 51 1017.9
20181022141404 26 22 0.0 1.6 0.00 0.03 0.00 53 1017.9
20181022140904 26 9 0.0 11.3 0.00 0.03 0.00 52 1017.9
20181022140405 26 265 3.2 11.3 0.00 0.03 0.00 53 1018.0
20181022135904 25 291 4.8 8.0 0.00 0.03 0.00 53 1018.0
20181022135404 26 276 1.6 9.7 0.00 0.03 0.00 53 1018.0
20181022134904 25 321 3.2 8.0 0.00 0.03 0.00 54 1018.0
20181022134403 25 301 0.0 4.8 0.00 0.03 0.00 54 1018.1
20181022133904 26 290 8.0 12.9 0.00 0.03 0.00 53 1018.2
20181022133403 25 285 6.4 11.3 0.00 0.03 0.00 55 1018.3
20181022132904 25 285 3.2 9.7 0.00 0.03 0.00 56 1018.4
20181022132404 25 356 3.2 11.3 0.00 0.03 0.00 55 1018.4
20181022131903 25 311 4.8 9.7 0.00 0.03 0.00 57 1018.4
20181022131404 25 291 4.8 11.3 0.00 0.03 0.00 57 1018.5
20181022130904 25 100 1.6 8.0 0.00 0.03 0.00 58 1018.5
20181022130403 25 355 0.0 1.6 0.00 0.03 0.00 57 1018.5
20181022125904 25 355 0.0 4.8 0.00 0.03 0.00 59 1018.4
20181022125404 25 352 3.2 9.7 0.00 0.03 0.00 59 1018.5
20181022124904 25 2 3.2 4.8 0.00 0.03 0.00 58 1018.5
20181022124404 25 301 1.6 9.7 0.00 0.03 0.00 57 1018.5
20181022123904 25 93 0.0 4.8 0.00 0.03 0.00 58 1018.6
20181022123403 24 106 1.6 8.0 0.00 0.03 0.00 58 1018.8